Lapse_Rate
6.5 6.3 6.5 6.6 6.7 6.6 6.6 6.5 6.5 6.5 6.5 6.6 6.6 6.7 6.7 6.8 6.8 7.0 7.0 6.9 6.8 6.8 6.9 6.9 6.8 6.8 6.8 6.7 6.4 6.3 6.3 6.0 5.7 5.5 5.3 5.2 4.7 4.7 4.8 4.8 4.7 4.6 4.9
6.8 6.4 6.3 6.7 6.6 6.7 6.8 6.6 6.5 6.6 6.7 6.8 6.9 6.8 6.6 6.5 6.8 6.9 7.0 7.1 7.0 7.0 6.8 6.7 6.7 6.7 6.6 6.5 6.3 6.1 6.0 5.8 5.9 5.4 5.3 4.9 4.7 4.6 4.2 4.2 4.1 4.2 4.6
6.6 6.2 6.0 6.6 6.9 7.0 7.0 6.7 6.5 6.6 6.7 7.0 7.1 7.2 6.9 6.8 6.9 6.8 6.9 7.0 7.0 6.9 6.8 6.6 6.5 6.6 6.6 6.6 6.5 6.2 6.0 5.9 5.9 5.8 5.7 5.6 5.4 5.1 5.0 4.5 4.3 4.2 4.3
7.0 6.8 6.9 7.0 7.2 7.2 7.2 6.9 6.6 6.7 6.7 6.9 7.0 7.1 6.9 6.8 6.9 6.7 6.6 6.8 6.8 6.6 6.5 6.6 6.5 6.6 6.6 6.9 6.7 6.7 6.4 6.5 6.3 6.2 6.1 5.9 5.5 5.4 5.4 5.3 5.1 4.8 4.7
7.3 7.4 7.6 7.5 7.4 7.3 7.3 7.1 7.0 6.9 6.9 6.8 6.8 7.0 6.9 6.9 6.8 6.9 6.8 6.9 6.9 6.8 6.7 6.7 6.7 6.6 6.8 6.7 6.7 6.6 6.7 6.6 6.5 6.3 6.2 5.9 5.9 5.8 5.6 5.2 5.2 5.2 5.2
7.5 7.6 7.6 7.5 7.4 7.6 7.6 7.5 7.4 7.3 7.2 7.2 7.2 7.1 7.1 6.9 7.0 7.1 7.0 7.0 7.0 7.0 7.0 7.0 7.0 7.0 6.7 6.7 6.4 6.6 6.7 6.6 6.2 6.0 5.8 5.6 5.9 5.8 5.8 5.3 5.5 5.3 5.4
7.9 7.7 7.7 7.4 7.6 7.7 7.6 7.5 7.4 7.5 7.4 7.3 7.3 7.2 7.3 7.2 7.1 7.3 7.3 7.3 7.2 7.3 7.5 7.4 7.0 6.9 6.7 6.7 6.8 6.1 6.3 6.4 6.0 5.3 5.4 5.4 5.3 4.9 5.3 5.5 5.9 5.8 5.6
8.0 7.8 7.7 7.6 7.5 7.3 7.3 7.4 7.4 7.3 7.2 7.1 7.1 7.1 7.1 7.4 7.3 7.3 7.4 7.3 7.4 7.5 7.4 7.2 7.1 7.1 7.0 6.7 6.2 6.4 6.5 6.2 5.7 5.7 5.5 5.1 5.0 4.8 5.2 5.4 5.5 5.5 5.6
8.1 7.8 7.5 7.4 7.4 7.2 7.2 7.3 7.1 7.1 7.2 7.1 7.1 7.1 7.1 7.3 7.2 7.1 7.2 7.4 7.5 7.5 7.3 7.1 7.0 7.0 6.7 5.8 5.4 5.5 5.7 5.8 6.1 6.0 5.5 4.8 4.5 4.8 4.9 5.1 5.6 5.6 5.6
8.1 8.1 7.9 7.7 7.5 7.5 7.6 7.6 7.6 7.4 7.3 7.3 7.3 7.4 7.4 7.5 7.5 7.3 7.2 7.1 7.0 7.0 6.8 7.0 7.0 6.8 6.6 6.0 5.3 5.7 5.0 5.0 6.0 5.2 6.0 5.5 4.7 4.8 5.1 5.1 4.9 5.0 5.1
8.4 8.0 7.8 7.7 7.6 7.5 7.5 7.4 7.4 7.3 7.3 7.2 7.2 7.2 7.4 7.7 8.0 7.8 7.3 6.9 6.8 6.7 7.0 6.9 6.9 7.1 6.6 5.5 4.2 4.2 5.5 5.4 6.1 4.8 4.9 5.0 4.7 4.6 4.7 4.7 4.8 4.9 4.7
8.4 8.1 7.8 7.7 7.7 7.6 7.4 7.1 6.9 6.9 7.1 7.5 7.7 7.9 8.1 8.1 8.1 8.0 7.6 7.3 7.2 6.9 7.1 7.0 6.5 6.3 5.2 6.2 6.0 6.0 6.5 5.8 5.8 5.2 4.7 5.2 5.2 4.5 4.4 4.9 5.2 4.7 4.7
8.5 8.3 7.9 7.7 7.6 7.5 7.7 7.7 7.8 7.5 7.7 7.9 7.9 7.9 8.0 8.3 8.3 8.1 7.7 7.3 7.4 7.3 7.0 6.7 6.6 6.8 6.8 6.4 6.1 6.5 5.9 5.3 5.0 5.0 5.0 4.8 5.0 5.0 4.9 4.4 4.6 4.8 5.0
8.1 8.3 8.3 8.2 8.0 7.9 7.8 7.9 7.9 7.9 7.8 7.8 8.1 8.1 8.1 8.2 8.4 8.2 7.6 7.3 7.2 6.8 6.8 6.8 7.1 7.2 6.6 6.4 5.9 6.2 5.4 5.4 5.3 5.2 5.2 5.4 5.1 5.1 4.5 4.5 4.5 5.1 5.0
7.8 7.7 7.8 7.7 7.8 8.0 8.1 7.9 7.7 7.7 7.9 7.9 7.9 7.9 8.1 8.1 8.0 7.6 7.4 6.8 6.6 6.5 6.7 6.5 6.3 6.1 5.9 5.4 5.6 5.6 5.5 5.6 5.7 5.5 5.1 4.9 4.8 4.9 4.8 5.0 5.3 5.3 5.2
7.3 7.4 7.6 7.7 7.5 7.6 7.5 7.4 7.4 7.5 7.7 7.8 8.0 8.1 8.1 7.8 7.2 6.8 6.8 6.6 6.6 6.9 6.5 6.2 6.2 5.8 5.3 5.5 5.3 5.4 5.3 5.2 5.1 5.0 5.4 4.8 4.4 5.0 5.1 5.0 5.0 5.2 5.0
7.8 7.7 7.9 7.9 7.9 7.7 7.6 7.3 7.3 7.3 7.5 7.7 7.7 7.6 7.4 7.3 6.6 6.5 6.2 6.8 6.6 6.3 5.6 5.7 5.5 5.4 5.2 5.3 5.2 5.0 5.0 5.4 5.4 5.7 5.1 5.2 4.8 4.9 5.1 5.2 5.2 5.3 5.2
7.7 7.6 7.8 7.9 7.9 7.7 7.5 7.2 7.1 6.9 6.7 6.5 6.4 6.8 6.4 6.5 6.7 6.3 6.5 6.3 5.8 5.1 5.0 5.1 5.0 5.0 5.2 5.2 5.4 5.2 5.5 5.7 5.3 5.2 5.0 5.1 5.1 5.2 5.2 5.1 5.2 5.3 5.0
6.9 7.7 7.8 7.5 7.1 6.7 6.2 6.0 5.7 6.2 6.1 5.9 6.0 5.7 6.1 5.8 5.9 5.9 5.2 4.9 5.0 4.9 5.0 5.1 5.3 5.4 5.4 5.5 5.8 5.4 5.3 5.2 5.7 5.3 5.1 5.1 4.9 4.9 5.1 5.3 5.1 5.1 4.8
6.2 6.7 6.6 6.3 6.4 6.1 6.3 6.3 6.0 5.9 5.9 6.0 5.6 5.9 5.6 5.4 5.1 4.8 4.7 4.3 4.4 4.5 4.5 4.4 4.8 5.3 5.1 4.5 5.0 5.1 5.1 5.7 5.2 5.1 5.1 5.1 5.1 5.2 5.3 5.3 5.1 5.3 5.5
6.6 6.5 6.6 6.7 6.5 6.1 6.1 6.1 5.8 5.7 5.6 5.5 5.6 5.6 5.3 5.2 4.6 4.6 4.7 4.4 4.2 4.2 4.1 4.3 4.6 4.9 4.8 5.1 5.6 5.5 5.4 5.2 4.9 5.0 5.0 5.1 5.0 5.3 5.5 5.6 5.8 5.8 5.9
5.7 5.9 5.7 5.7 5.6 5.5 5.5 5.4 5.5 5.4 5.4 5.3 5.1 4.9 4.6 5.0 4.6 4.5 4.6 4.5 4.5 4.1 3.7 4.0 3.7 6.0 5.6 5.4 5.2 5.0 5.0 4.8 5.0 5.0 4.9 4.9 5.0 5.4 5.6 5.9 5.9 6.0 6.3
5.2 5.1 5.1 5.1 5.1 5.0 4.9 5.1 4.9 5.0 5.0 4.6 4.5 4.4 4.4 4.7 4.7 4.2 4.4 4.7 4.5 4.2 4.4 5.2 6.0 5.5 5.0 4.7 4.8 4.8 4.7 4.9 4.9 4.8 4.7 4.6 4.8 5.4 5.8 6.0 6.4 6.6 6.3
5.0 4.9 4.9 5.0 5.0 5.0 4.9 5.0 4.9 4.8 4.7 4.6 4.6 4.7 4.9 4.9 4.8 4.6 5.2 5.4 5.2 5.2 5.0 4.9 4.8 4.7 4.6 4.6 4.7 4.9 4.8 4.8 4.8 4.7 4.5 4.4 5.0 5.4 5.4 5.7 6.0 6.2 5.7
5.2 5.2 5.2 5.2 5.3 5.4 5.3 5.4 5.5 5.6 5.7 5.5 5.6 5.5 5.4 5.1 4.9 4.7 4.9 5.0 5.0 4.8 4.7 4.6 4.5 4.5 4.4 4.4 4.4 4.3 4.5 4.6 4.6 4.5 4.5 4.8 5.2 5.2 5.1 5.3 5.5 5.5 5.4
5.4 5.5 5.5 5.5 5.5 5.5 5.4 5.4 5.4 5.4 5.5 5.4 5.5 5.4 5.3 5.4 5.3 5.0 4.9 4.8 4.7 4.5 4.5 4.7 4.8 4.8 4.6 4.3 4.2 4.3 4.4 4.6 4.5 4.5 4.6 5.0 5.2 5.3 5.2 5.4 5.3 5.4 5.6
Wind_Speed
14 13 13 12 11 9 9 8 10 7 7 7 7 7 7 7 7 7 7 6 6 5 4 6 6 4 4 3 3 2 3 3 4 2 1 1 2 2 3 4 1 3 5
15 14 15 12 12 12 12 10 7 9 7 8 7 7 7 7 7 9 10 8 8 7 7 6 6 4 6 4 3 4 3 3 3 3 1 1 2 1 2 3 3 5 3
14 14 12 12 12 14 14 12 7 8 8 7 7 8 8 7 8 9 10 9 8 9 8 8 8 7 6 4 5 5 3 2 2 2 2 1 2 1 2 2 2 3 4
13 14 15 15 15 14 13 12 12 11 11 9 9 8 8 8 9 10 10 9 9 9 10 9 9 9 9 8 6 7 5 5 4 3 2 2 1 2 1 1 2 1 3
15 14 16 15 14 12 12 13 12 11 13 15 12 7 7 9 8 11 11 10 10 9 9 10 10 10 13 11 7 7 8 6 4 4 3 3 2 1 2 1 2 2 3
15 17 16 12 12 12 12 12 12 13 13 12 13 11 9 10 13 16 14 10 10 10 11 12 11 13 11 12 12 15 13 9 5 4 3 3 3 3 3 2 2 1 3
17 14 13 12 13 13 12 10 12 14 12 13 14 13 14 13 15 18 19 11 10 12 13 12 9 7 7 7 13 8 7 4 5 5 4 3 3 3 1 2 3 2 3
12 12 10 9 11 9 8 11 12 11 13 13 12 13 13 13 13 18 19 15 11 13 13 12 10 10 9 7 6 6 6 5 5 4 4 3 2 2 2 2 1 3 4
6 6 6 7 8 7 10 12 12 10 11 13 12 14 14 15 17 18 16 13 13 14 11 10 8 7 4 6 5 4 8 7 13 12 11 11 10 6 4 3 1 1 2
6 5 5 4 5 7 8 9 10 11 13 11 14 14 15 16 12 16 16 9 10 9 6 12 25 22 29 14 11 5 9 2 7 5 2 4 3 3 5 3 2 0 2
4 4 3 2 1 4 5 4 6 9 11 12 12 11 10 6 12 15 19 10 9 4 7 7 9 27 26 27 14 9 7 7 9 3 2 2 1 1 2 2 3 3 0
1 2 3 5 4 4 5 5 6 7 8 9 6 3 1 1 6 9 14 11 14 9 9 9 11 22 22 19 16 24 20 11 7 4 3 2 2 0 2 1 2 0 4
5 2 2 3 3 4 5 6 4 5 7 5 4 4 2 1 1 12 18 20 16 11 8 11 19 17 16 12 15 16 17 7 7 4 3 3 2 2 3 4 3 2 5
5 5 4 4 4 4 3 4 4 4 4 4 5 5 4 4 4 5 8 9 14 10 13 9 6 6 7 11 10 10 6 7 5 4 3 1 0 1 2 1 2 3 3
7 5 3 1 1 3 4 5 5 6 4 4 6 8 9 7 5 7 10 9 9 10 10 6 4 2 4 5 4 4 4 4 4 3 2 3 3 2 2 1 1 2 2
6 2 1 2 2 2 2 2 13 12 15 8 9 6 4 11 14 9 10 15 16 11 4 6 4 4 5 5 6 4 2 5 4 3 2 1 1 1 2 2 1 2 3
2 2 3 4 3 2 2 1 2 8 23 24 16 15 15 13 16 13 13 13 9 5 5 6 5 4 5 5 5 4 3 3 3 3 2 3 1 2 2 2 3 3 3
5 6 4 4 4 4 4 5 5 4 6 6 15 12 14 14 13 13 9 6 3 4 3 5 6 6 5 5 5 4 4 4 3 3 3 2 1 1 2 3 2 3 4
1 3 4 5 5 7 6 8 7 8 8 7 7 9 9 11 7 11 10 3 4 5 4 4 5 5 5 5 5 4 5 5 4 3 2 2 1 1 3 4 4 5 5
2 9 8 5 6 6 7 9 8 8 8 4 8 3 3 5 5 5 4 4 4 4 4 5 4 4 4 4 4 5 5 5 4 3 2 1 1 1 3 4 4 4 4
2 5 11 8 7 7 6 6 6 7 8 3 5 5 8 7 6 6 5 5 4 5 4 5 4 3 3 4 5 4 4 4 3 2 2 1 1 2 3 4 4 4 5
5 5 6 6 6 7 6 6 6 7 6 5 4 5 8 7 6 6 6 4 4 4 3 4 4 4 4 4 5 5 4 4 3 3 2 1 1 3 3 3 3 3 4
6 7 7 7 7 9 8 6 6 6 7 8 8 7 6 5 6 4 5 3 3 2 2 3 4 4 2 4 5 5 5 5 4 4 2 1 3 3 2 2 3 3 3
6 5 6 5 6 6 6 5 4 6 5 5 5 4 4 4 4 5 4 4 4 3 2 3 4 5 5 5 8 8 6 5 5 3 2 3 4 4 2 2 2 2 3
5 5 5 5 5 4 5 5 4 4 4 3 3 2 1 2 3 3 3 3 3 4 5 4 4 6 8 9 9 10 8 8 5 5 3 3 4 5 4 3 3 2 1
5 5 4 4 4 4 3 3 3 2 3 2 2 2 2 3 3 4 4 4 3 4 5 4 7 10 11 13 14 12 11 10 8 8 6 3 2 2 3 4 4 2 5
Wind_Direction
193 198 201 205 206 206 209 203 203 202 208 205 203 208 209 207 200 193 203 209 212 225 232 225 235 204 215 204 198 174 179 160 188 293 225 258 346 343 3 15 308 306 293
195 196 201 202 206 211 216 212 199 209 209 206 201 206 210 209 196 204 205 206 199 210 222 223 227 204 227 210 193 188 192 163 140 200 264 307 211 296 349 56 35 45 67
191 194 201 205 204 211 215 215 203 209 217 211 203 209 207 201 199 209 209 206 205 211 215 210 224 203 219 194 192 184 189 144 131 142 236 275 272 331 13 359 357 336 301
194 198 203 203 205 210 211 214 215 213 224 222 218 213 200 194 202 205 208 208 209 214 219 218 226 216 216 205 187 182 173 167 164 154 198 251 314 319 291 240 313 340 300
193 201 209 209 209 210 209 210 212 209 223 233 231 219 205 203 208 208 210 214 212 216 223 226 229 219 218 201 177 189 178 172 166 166 174 174 205 226 226 276 275 270 274
193 205 209 204 202 209 209 207 209 216 218 224 232 223 201 222 212 202 204 211 214 215 224 232 227 226 229 211 209 190 184 171 175 152 179 190 194 197 192 214 224 300 303
194 201 205 203 207 209 206 200 213 219 221 224 227 227 228 228 208 206 202 213 211 218 224 233 230 227 218 203 205 215 158 135 154 159 181 185 168 193 106 291 259 224 234
193 190 186 192 210 208 201 214 218 216 219 223 229 230 232 236 215 208 204 214 213 220 224 228 225 211 195 179 175 150 145 113 78 62 83 152 150 109 180 195 303 299 289
132 159 182 186 199 200 211 219 223 218 223 226 227 229 229 236 214 207 195 216 221 227 226 223 223 217 215 168 143 140 104 77 64 90 101 104 90 89 106 86 16 31 287
72 97 103 114 197 220 225 227 228 223 228 226 233 231 230 241 217 203 193 213 223 228 72 77 67 65 43 324 107 132 85 13 105 93 139 94 88 80 80 88 154 160 287
43 52 32 26 278 249 252 236 228 233 239 238 238 238 242 249 232 194 188 200 211 122 120 109 113 107 105 119 133 166 167 148 152 148 84 101 107 98 90 63 80 124 80
90 54 350 333 338 334 299 268 245 247 247 238 200 126 76 78 143 157 168 187 146 145 154 154 151 127 140 155 161 149 152 155 137 143 170 123 103 3 329 338 101 73 216
329 15 19 351 354 337 317 308 298 239 231 208 168 160 153 117 101 170 155 144 146 135 154 161 157 160 150 140 152 142 144 152 141 154 155 155 203 252 320 316 320 297 285
317 325 336 331 341 17 357 338 308 281 266 151 158 165 164 150 135 128 127 126 116 116 123 131 159 129 136 134 143 145 141 122 140 152 159 201 330 307 284 307 311 345 335
321 304 261 131 124 94 71 27 328 289 283 185 189 174 167 170 166 148 140 137 127 127 121 119 131 176 117 121 111 117 115 113 120 113 168 209 209 185 273 267 270 286 223
268 236 125 102 53 84 88 70 40 36 38 51 80 131 70 105 102 62 87 105 113 127 103 134 135 127 132 134 132 111 90 133 120 155 165 180 232 235 281 299 246 246 271
352 74 84 80 71 49 61 24 52 54 54 42 45 69 75 102 100 102 99 113 137 104 127 139 135 134 127 128 129 126 115 118 133 140 111 119 143 290 305 313 304 272 280
66 77 97 92 91 80 65 62 44 49 72 51 35 52 71 89 101 104 115 122 81 43 116 129 128 126 126 121 116 112 119 120 107 110 108 96 100 301 296 282 287 284 291
91 97 101 100 103 96 90 83 78 75 74 77 73 53 43 78 93 79 76 82 106 100 97 96 107 119 121 115 117 125 119 124 120 130 122 105 12 242 270 289 302 278 272
44 97 93 98 89 90 94 97 86 85 72 50 84 4 63 15 46 42 53 58 76 85 90 96 87 94 96 122 124 125 123 108 126 129 138 128 320 307 298 301 301 304 297
101 89 88 77 76 74 75 77 84 84 90 57 80 86 74 85 69 58 55 50 70 78 74 93 107 119 150 140 126 122 115 122 150 141 124 49 353 310 291 281 280 281 284
46 56 67 68 76 77 81 92 97 92 85 70 39 29 48 68 75 72 67 72 66 65 91 131 164 157 164 147 141 136 134 162 180 180 175 183 289 285 290 284 292 308 308
54 54 59 61 64 70 68 61 67 64 76 81 89 87 84 86 105 122 128 147 122 117 153 139 124 114 135 162 157 150 165 194 188 165 162 290 288 280 280 278 312 324 328
71 67 70 59 67 73 82 84 82 79 94 97 104 119 139 142 149 169 163 157 160 167 158 161 163 162 170 181 179 180 181 166 165 170 159 246 275 301 286 272 286 292 321
75 76 76 83 81 87 85 79 69 65 80 98 109 120 122 135 143 174 176 178 168 178 199 190 191 196 195 189 189 195 197 185 182 195 211 233 258 289 292 280 290 301 327
92 91 91 88 85 89 99 95 85 100 118 132 121 139 173 195 197 201 209 213 211 215 215 209 211 215 209 207 209 204 200 201 209 217 230 211 234 291 309 291 313 338 326